FW3030 Weather Reports


Display with metric or nautical units.
time (UTC)temp
F
wind
direction
speed
MPH
gust
MPH
rain 1hr
in
rain 24hr
in
rain mn
in
humidity
%
barometer
mb
20260904030106 77 70 0.0 2.0 0.00 0.00 0.00 81 1009.0
20260904024601 77 83 0.0 3.0 0.00 0.00 0.00 80 1009.2
20260904023106 78 11 1.0 2.0 0.00 0.00 0.00 78 1009.2
20260904021621 79 71 0.0 3.0 0.00 0.00 0.00 75 1008.9
20260904020104 80 38 0.0 3.0 0.00 0.00 0.00 73 1009.0
20260904014608 81 0 0.0 2.0 0.00 0.00 0.00 71 1008.6
20260904013127 82 0 0.0 2.0 0.00 0.00 0.00 70 1008.6
20260904011647 82 0 0.0 3.0 0.00 0.00 0.00 69 1008.3
20260904010106 83 46 0.0 3.0 0.00 0.00 0.00 68 1008.3
20260904004604 83 60 0.0 3.0 0.00 0.00 0.00 67 1008.1
20260904003109 84 61 0.0 3.0 0.00 0.00 0.00 66 1008.2
20260904001609 85 0 1.0 6.0 0.00 0.00 0.00 66 1008.1
20260904000105 85 77 1.0 3.0 0.00 0.00 0.00 66 1008.1
20260903234604 85 0 0.0 3.0 0.00 0.00 0.00 65 1008.0
20260903233112 86 141 1.0 6.0 0.00 0.00 0.00 65 1008.0
20260903231606 86 0 1.0 4.0 0.00 0.00 0.00 65 1007.8
20260903230111 86 98 1.0 6.0 0.00 0.00 0.00 65 1007.8
20260903224614 86 85 1.0 6.0 0.00 0.00 0.00 64 1007.8
20260903223108 87 158 0.0 4.0 0.00 0.00 0.00 64 1007.8
20260903221605 87 0 1.0 5.0 0.00 0.00 0.00 62 1007.8
20260903220105 88 108 1.0 5.0 0.00 0.00 0.00 60 1007.6
20260903214610 88 87 1.0 6.0 0.00 0.00 0.00 61 1007.8
20260903213108 88 135 2.0 8.0 0.00 0.00 0.00 59 1007.8
20260903211618 88 51 2.0 7.0 0.00 0.00 0.00 58 1007.7
20260903210142 89 58 2.0 7.0 0.00 0.00 0.00 58 1007.6
20260903204622 89 50 3.0 8.0 0.00 0.00 0.00 58 1007.7
20260903203108 87 53 2.0 6.0 0.00 0.00 0.00 60 1007.7
20260903201603 88 128 1.0 5.0 0.00 0.00 0.00 58 1007.6
20260903200118 89 127 1.0 5.0 0.00 0.00 0.00 57 1007.9
20260903194609 91 51 2.0 5.0 0.00 0.00 0.00 55 1008.1
20260903193103 91 158 1.0 5.0 0.00 0.00 0.00 55 1008.2
20260903191616 91 53 1.0 5.0 0.00 0.00 0.00 54 1008.4
20260903190110 91 149 1.0 6.0 0.00 0.00 0.00 54 1008.7
20260903184604 92 38 2.0 7.0 0.00 0.00 0.00 53 1008.7
20260903183113 91 323 2.0 6.0 0.00 0.00 0.00 52 1008.7
20260903181601 91 152 1.0 7.0 0.00 0.00 0.00 52 1009.0
20260903180108 91 286 3.0 7.0 0.00 0.00 0.00 52 1009.2
20260903174604 91 136 2.0 8.0 0.00 0.00 0.00 53 1009.4
20260903173109 90 26 2.0 8.0 0.00 0.00 0.00 52 1009.2
20260903171613 89 72 1.0 7.0 0.00 0.00 0.00 56 1009.5
20260903170105 88 78 1.0 4.0 0.00 0.00 0.00 60 1009.6
20260903164603 86 52 1.0 6.0 0.00 0.00 0.00 63 1009.9
20260903163121 85 69 2.0 6.0 0.00 0.00 0.00 63 1010.1
20260903161605 82 20 0.0 4.0 0.00 0.00 0.00 69 1010.1
20260903160118 81 49 2.0 6.0 0.00 0.00 0.00 70 1010.3
20260903154607 79 66 2.0 5.0 0.00 0.00 0.00 72 1010.4
20260903153109 77 45 1.0 4.0 0.00 0.00 0.00 76 1010.4
20260903151612 76 92 1.0 3.0 0.00 0.00 0.00 77 1010.4
20260903150110 76 96 1.0 4.0 0.00 0.00 0.00 77 1010.5
20260903144604 75 87 1.0 6.0 0.00 0.00 0.00 77 1010.5
20260903143101 74 62 0.0 6.0 0.00 0.00 0.00 79 1010.6
20260903141604 73 61 1.0 3.0 0.00 0.00 0.00 80 1010.6
20260903140113 72 46 1.0 4.0 0.00 0.00 0.00 81 1010.5
20260903134603 71 80 1.0 4.0 0.00 0.00 0.00 82 1010.6
20260903133113 70 0 1.0 6.0 0.00 0.00 0.00 83 1010.6
20260903131611 68 56 0.0 2.0 0.00 0.00 0.00 85 1010.9
20260903124615 67 92 0.0 4.0 0.00 0.00 0.00 84 1010.9
20260903123104 67 64 1.0 4.0 0.00 0.00 0.00 84 1010.9
20260903121602 67 0 0.0 2.0 0.00 0.00 0.00 84 1010.8
20260903120106 67 78 2.0 5.0 0.00 0.00 0.00 84 1010.7
20260903114607 67 0 0.0 3.0 0.00 0.00 0.00 83 1010.8
20260903113106 67 34 0.0 2.0 0.00 0.00 0.00 83 1010.8
20260903111604 67 0 0.0 3.0 0.00 0.00 0.00 82 1011.0
20260903110105 67 68 1.0 3.0 0.00 0.00 0.00 82 1010.8
20260903104603 67 0 0.0 4.0 0.00 0.00 0.00 81 1010.9
20260903103102 67 0 0.0 2.0 0.00 0.00 0.00 81 1011.1
20260903101603 68 45 0.0 3.0 0.00 0.00 0.00 80 1010.7
20260903100106 68 0 0.0 3.0 0.00 0.00 0.00 80 1010.7
20260903094655 68 69 0.0 3.0 0.00 0.00 0.00 79 1010.7
20260903093105 68 0 0.0 2.0 0.00 0.00 0.00 79 1010.7
20260903091607 68 0 1.0 4.0 0.00 0.00 0.00 78 1010.5
20260903090105 68 0 0.0 2.0 0.00 0.00 0.00 77 1010.6
20260903084605 69 0 0.0 2.0 0.00 0.00 0.00 77 1010.9
20260903083108 69 0 0.0 3.0 0.00 0.00 0.00 76 1010.9
20260903081619 69 0 0.0 4.0 0.00 0.00 0.00 76 1010.9
20260903080104 69 73 0.0 3.0 0.00 0.00 0.00 76 1010.9
20260903074611 69 0 0.0 2.0 0.00 0.00 0.00 76 1011.1
20260903073108 69 0 0.0 2.0 0.00 0.00 0.00 76 1010.9
20260903071601 69 0 0.0 3.0 0.00 0.00 0.00 75 1011.1
20260903070107 69 91 0.0 3.0 0.00 0.00 0.00 75 1011.2
20260903064609 69 88 1.0 3.0 0.00 0.00 0.00 75 1011.3
20260903063105 69 0 1.0 3.0 0.00 0.00 0.00 75 1011.4
20260903061605 70 42 0.0 2.0 0.00 0.00 0.00 74 1011.5
20260903060109 70 32 0.0 3.0 0.00 0.00 0.00 74 1011.5
20260903054623 70 0 0.0 3.0 0.00 0.00 0.00 74 1011.6
20260903053108 70 35 0.0 2.0 0.00 0.00 0.00 74 1011.6
20260903051605 70 41 0.0 2.0 0.00 0.00 0.00 73 1011.7
20260903050110 71 0 0.0 2.0 0.00 0.00 0.00 73 1011.9
20260903044603 71 0 0.0 2.0 0.00 0.00 0.00 72 1012.0
20260903043100 71 41 0.0 1.0 0.00 0.00 0.00 71 1012.0
20260903041614 72 0 0.0 1.0 0.00 0.00 0.00 71 1012.2
20260903040126 72 0 0.0 2.0 0.00 0.00 0.00 71 1012.2
20260903034604 72 0 0.0 3.0 0.00 0.00 0.00 71 1012.0
20260903033058 73 0 1.0 3.0 0.00 0.00 0.00 71 1012.1
20260903031605 73 36 1.0 3.0 0.00 0.00 0.00 69 1012.2